Location: Poughquag
(41.6090°N, 73.6820°W)
Time: 09:45:43
(UTC-05:00)

Vanguard 1 - Pass Details

Date: 04 December 2023
Orbit: 653 x 3826 km, 34.3° (Epoch: 25 February)

Event Time Altitude Azimuth Distance (km) Brightness Sun altitude
Rises 15:51:55 0° 205° (SSW) 5,017 14.9 4.3°
Reaches altitude 10° 15:55:11 10° 195° (SSW) 4,412 14.3 3.8°
Maximum altitude 16:06:22 33° 137° (SE) 3,964 13.1 2.1°
Drops below altitude 10° 16:23:17 10° 83° (E) 6,695 13.7 -0.6°
Sets 16:29:45 0° 76° (ENE) 7,919 14.0 -1.7°
